Content
SEND FEEDBACK

Daily
Averages
Monthly
Summary
United States of America

NEW YORK - CENTRAL PARK, NEW YORK


Home > North America > United States > New York
Elevation: 14 feet     Latitude: 40 47N     Longitude: 073 58W

WEATHER
 
SELECT A DAY
Number of Records: 148,168;   Date Range: 11/1/95 - 8/12/14
 
SHARE

PRINT THIS DATA

[ ← Previous Day ]
WEATHER ALMANAC - MAY 15, 2014
[ Next Day → ]
[ °C ]   °F
Weather ElementAverageHighLow
Temperature63 °F71.1 °F (4:51 pm)57.9 °F (2:04 am)
Dewpoint60 °F64 °F (4:51 pm)55 °F (2:04 am)
Humidity89.8 %94 % (12:47 pm)78 % (4:51 pm)
Barometer30.20 in30.26 in (1:45 am)30.09 in (11:51 pm)
Wind Speed4.6 mph10.4 mph (7:51 pm)
Wind Gust18.4 mph (11:51 pm)
Weather ElementAverage
Visibility3.6 mi
Wind DirectionENE (60 °)

Weather ElementTotal
Precipitation0.42 in
Heating Degree Days0.5 (Base 65)
Growing Degree Days14.5 (Base 50)
Averaged from 46 records on May 15, 2014
WEATHER CONDITIONS BREAKOUT
WIND DIRECTION BREAKOUT
WEATHER BY HOUR - MAY 15, 2014
[ °C ]   °F
Local TimeTemperatureDewpointHumidityBarometerVisibilityWind DirectionWind SpeedGust SpeedPrecipitationEventsConditions
1:27 AM59.0 °F55.9 °F90 %30.25 in4.0 miESE (110°)3.5 mph0.01 inOvercast
1:45 AM59.0 °F55.4 °F88 %30.26 in2.5 miVariable4.6 mph0.01 inOvercast
1:51 AM59.0 °F55.9 °F90 %30.23 in2.0 miEast (90°)4.6 mph0.01 inOvercast
2:04 AM57.9 °F55.0 °F90 %30.25 in4.0 miENE (60°)3.5 mphOvercast
2:25 AM57.9 °F55.9 °F93 %30.25 in2.5 miNE (50°)3.5 mph0.01 inRainLight Rain
2:38 AM57.9 °F55.9 °F93 %30.25 in4.0 miEast (100°)3.5 mph0.01 inOvercast
2:51 AM57.9 °F55.9 °F93 %30.22 in4.0 miENE (60°)3.5 mph0.01 inOvercast
3:33 AM59.0 °F55.9 °F90 %30.24 in2.0 miENE (70°)4.6 mph0.02 inRainLight Rain
3:41 AM59.0 °F55.9 °F90 %30.23 in2.0 miCalm0.02 inRainLight Rain
3:51 AM59.0 °F55.9 °F90 %30.21 in2.0 miCalm0.03 inRainLight Rain
4:03 AM57.9 °F55.9 °F93 %30.22 in4.0 miSE (130°)5.8 mph0.01 inOvercast
4:42 AM59.0 °F57.0 °F93 %30.22 in2.5 miEast (80°)3.5 mph0.01 inOvercast
4:51 AM59.0 °F57.0 °F93 %30.20 in2.0 miSE (130°)4.6 mph0.01 inOvercast
5:05 AM60.1 °F57.0 °F90 %30.22 in1.5 miCalm0.00 inRainLight Rain
5:18 AM60.1 °F57.9 °F93 %30.22 in2.5 miVariable4.6 mph0.01 inRainLight Rain
5:51 AM61.0 °F59.0 °F93 %30.20 in2.0 miSSE (150°)6.9 mph0.02 inOvercast
6:17 AM61.0 °F59.0 °F93 %30.23 in1.8 miVariable3.5 mphOvercast
6:51 AM62.1 °F59.0 °F90 %30.21 in1.0 miCalm0.00 inOvercast
7:01 AM62.1 °F60.1 °F93 %30.23 in0.8 miSouth (190°)3.5 mph0.01 inRainRain
7:16 AM62.1 °F60.1 °F93 %30.23 in1.2 miCalm0.04 inRainLight Rain
7:51 AM63.0 °F61.0 °F93 %30.20 in1.2 miVariable3.5 mph0.04 inOvercast
8:51 AM64.0 °F62.1 °F93 %30.21 in1.8 miNorthOvercast
9:34 AM64.0 °F61.0 °F90 %30.23 in2.0 miVariable4.6 mphOvercast
9:51 AM64.0 °F62.1 °F93 %30.20 in2.0 miNorthOvercast
10:42 AM64.9 °F62.1 °F90 %30.23 in3.0 miSouth (190°)9.2 mphOvercast
10:51 AM64.9 °F62.1 °F90 %30.20 in3.0 miNorthOvercast
11:39 AM64.9 °F62.1 °F90 %30.22 in3.0 miNorthOvercast
11:51 AM64.0 °F62.1 °F93 %30.19 in2.0 miVariable5.8 mph0.00 inRainLight Rain
11:59 AM64.9 °F62.1 °F90 %30.22 in1.8 miVariable5.8 mph0.02 inRainLight Rain
12:16 PM64.0 °F62.1 °F93 %30.22 in3.0 miVariable3.5 mph0.04 inRainLight Rain
12:47 PM64.4 °F62.6 °F94 %30.21 in2.5 miCalm0.04 inOvercast
12:51 PM64.9 °F63.0 °F93 %30.19 in2.5 miVariable3.5 mph0.04 inOvercast
1:51 PM64.9 °F62.1 °F90 %30.18 in2.5 miSouth (170°)9.2 mphOvercast
2:04 PM64.9 °F62.1 °F90 %30.20 in3.0 miSouth (170°)6.9 mphOvercast
2:51 PM66.9 °F62.1 °F84 %30.16 in5.0 miSouth (170°)9.2 mphHaze
3:04 PM66.9 °F62.1 °F84 %30.18 in6.0 miVariable6.9 mphHaze
3:51 PM69.1 °F63.0 °F81 %30.14 in8.0 miSouth (190°)4.6 mphOvercast
4:19 PM69.1 °F63.0 °F81 %30.16 in9.0 miSouth (170°)8.1 mph17.3 mphOvercast
4:51 PM71.1 °F64.0 °F78 %30.13 in9.0 miVariable5.8 mphOvercast
5:51 PM68.0 °F63.0 °F84 %30.14 in8.0 miCalmOvercast
6:51 PM66.0 °F62.1 °F87 %30.13 in7.0 miVariable5.8 mphOvercast
7:51 PM64.9 °F62.1 °F90 %30.13 in4.0 miSSE (150°)10.4 mphOvercast
8:51 PM64.9 °F62.1 °F90 %30.13 in6.0 miVariable4.6 mphOvercast
9:51 PM66.0 °F62.1 °F87 %30.12 in6.0 miVariable4.6 mphOvercast
10:51 PM66.0 °F62.1 °F87 %30.11 in7.0 miSouth (170°)9.2 mphOvercast
11:51 PM66.0 °F62.1 °F87 %30.09 in7.0 miSSE (160°)9.2 mph18.4 mphOvercast
Hourly data recorded from KNYC, located miles away from New York - Central Park, New York







STORIES FROM OUR PARTNERS